This demonstration page uses our WeatherBlox Daily Observations layout. Learn more.

Left ArrowRight Arrow

39.92423, -83.80882

Hourly Observations for March 14, 2021

Temp ( °F °C ) Dew Point ( °F °C ) Humidity (%) Winds ( mph kmh ) Pressure ( in mb ) Visibility ( mi km ) Precip ( " mm )
12:56 am 00:56 Clear 32 undefined 26 -3.3 79 79 WSW 5 7 30.33 1027 10 16 N/A
1:56 am 01:56 Clear 33 0.6 23 -5 66 66 SW 5 7 30.32 1027 10 16 N/A
3:56 am 03:56 Clear 32 undefined 24 -4.4 73 73 WSW 3 6 30.29 1026 10 16 N/A
4:56 am 04:56 Clear 29 -1.7 27 -2.8 92 92 N N/A 30.27 1025 10 16 N/A
5:56 am 05:56 Clear 30 -1.1 28 -2.2 92 92 N N/A 30.27 1025 10 16 N/A
6:56 am 06:56 Clear 31 -0.6 25 -3.9 79 79 NW 5 7 30.29 1026 10 16 N/A
7:56 am 07:56 Sunny 33 0.6 24 -4.4 70 70 NNW 3 6 30.29 1026 10 16 N/A
8:56 am 08:56 Sunny 35 1.7 29 -1.7 78 78 N N/A 30.29 1026 10 16 N/A
9:56 am 09:56 Sunny 42 5.6 28 -2.2 58 58 NW 6 9 30.30 1026 10 16 N/A
10:56 am 10:56 Sunny 45 7.2 30 -1.1 56 56 NW 7 11 30.31 1027 10 16 N/A
11:56 am 11:56 Sunny 52 11.1 31 -0.6 45 45 NW 9 15 30.31 1027 10 16 N/A
12:56 pm 12:56 Sunny 53 11.7 32 undefined 45 45 N 14 22 30.31 1027 10 16 N/A
1:56 pm 13:56 Sunny 53 11.7 31 -0.6 43 43 N 12 19 30.32 1027 10 16 N/A
2:56 pm 14:56 Sunny 55 12.8 29 -1.7 37 37 N 12 19 30.29 1026 10 16 N/A
3:56 pm 15:56 Sunny 55 12.8 29 -1.7 37 37 NNE 10 17 30.27 1025 10 16 N/A
4:56 pm 16:56 Sunny 57 13.9 29 -1.7 34 34 N 13 20 30.29 1026 10 16 N/A
5:56 pm 17:56 Sunny 53 11.7 29 -1.7 40 40 NE 14 22 30.29 1026 10 16 N/A
6:56 pm 18:56 Sunny 49 9.4 23 -5 36 36 NE 14 22 30.30 1026 10 16 N/A
7:56 pm 19:56 Clear 45 7.2 20 -6.7 37 37 NE 18 30 30.33 1027 10 16 N/A
8:56 pm 20:56 Clear 41 5 23 -5 49 49 NE 17 28 30.37 1028 10 16 N/A
9:56 pm 21:56 Clear 40 4.4 24 -4.4 53 53 ENE 17 28 30.38 1029 10 16 N/A
10:56 pm 22:56 Clear 37 2.8 23 -5 57 57 ENE 16 26 30.40 1029 10 16 N/A
11:56 pm 23:56 Clear 35 1.7 10 -12.2 35 35 ENE 21 33 30.40 1030 10 16 N/A

Powered by AerisWeather